Tracking 30995 objects as of 5-Jul-2025
HD Live streaming from Space Station
objects crossing your sky now

COSMOS 2251 DEB

Track COSMOS 2251 DEB now!
10-day predictions


NORAD ID: 34721
Int'l Code: 1993-036YP
Perigee: 754.2 km
Apogee: 1,074.9 km
Inclination: 73.9 °
Period: 103.1 minutes
Semi major axis: 7285 km
RCS: 0.0075 m2 (small)
Launch date: June 16, 1993
Source: Commonwealth of Independent States (former USSR) (CIS)
Launch site: PLESETSK MISSILE AND SPACE COMPLEX (PKMTR)

Note: This is SATELLITE DEBRIS
Your satellite tracking list
Your tracking list is empty




NASA's NSSDC Master Catalog

Two Line Element Set (TLE):
1 34721U 93036YP  25186.16702170  .00001376  00000-0  83334-3 0  9995
2 34721  73.9219 244.6036 0220098 216.2524 173.9998 13.96080648829086
Source of the keplerian elements: AFSPC